^^
Saratoga-Weather Station Historical Data
Daily Summary for September 13, 2020 Units:  Metric    English   Both
Daily Weekly Monthly Yearly Custom
  High: Low: Average:
Temperature: 7.8 °C 2.9 °C 5.8 °C
Dew Point: 6.9 °C 2.2 °C 4.7 °C
Humidity: 97% 88% 93%
Wind Speed: 16.3km/h 0km/h 2.6km/h
Wind Gust: 19.3km/h - -
Wind- - SW
Pressure: 1012.9 hPa 1005.8 hPa -
Precipitation: 0.2 mm    
Historical Graphs
 
 
Tabular Data for September 13, 2020
Time Temperature Dew Point Pressure Wind Wind Speed Wind Gust Humidity Rainfall Rate (Hourly) solar
00:02 7.8 °C 6.9 °C 1005.8 hPa WNW 13 km/h 16.1 km/h 94% 0.2 mm 0 W/m2
00:07 7.8 °C 6.9 °C 1005.8 hPa WNW 13 km/h 19.3 km/h 94% 0.0 mm 0 W/m2
00:12 7.8 °C 6.9 °C 1005.8 hPa West 9.7 km/h 19.3 km/h 94% 0.0 mm 0 W/m2
00:17 7.8 °C 6.9 °C 1005.8 hPa WNW 7.9 km/h 9.7 km/h 94% 0.0 mm 0 W/m2
00:22 7.8 °C 6.9 °C 1005.8 hPa West 4.7 km/h 11.3 km/h 94% 0.0 mm 0 W/m2
00:27 7.8 °C 6.9 °C 1006.1 hPa WSW 6.4 km/h 12.9 km/h 94% 0.2 mm 0 W/m2
00:32 7.7 °C 6.9 °C 1006.1 hPa West 6.4 km/h 12.9 km/h 95% 0.2 mm 0 W/m2
00:37 7.7 °C 6.9 °C 1006.1 hPa WSW 6.4 km/h 9.7 km/h 95% 0.2 mm 0 W/m2
00:42 7.7 °C 6.8 °C 1006.1 hPa West 16.3 km/h 17.7 km/h 94% 0.2 mm 0 W/m2
00:47 7.7 °C 6.8 °C 1006.1 hPa West 6.4 km/h 12.9 km/h 94% 0.2 mm 0 W/m2
00:52 7.7 °C 6.8 °C 1006.4 hPa West 4.7 km/h 17.7 km/h 94% 0.2 mm 0 W/m2
00:57 7.7 °C 6.8 °C 1006.4 hPa West 14.3 km/h 14.5 km/h 94% 0.2 mm 0 W/m2
01:02 7.7 °C 6.8 °C 1006.4 hPa West 9.7 km/h 12.9 km/h 94% 0.2 mm 0 W/m2
01:07 7.7 °C 6.8 °C 1006.4 hPa West 6.4 km/h 11.3 km/h 94% 0.2 mm 0 W/m2
01:12 7.7 °C 6.8 °C 1006.4 hPa WNW 11.1 km/h 11.3 km/h 94% 0.2 mm 0 W/m2
01:17 7.7 °C 6.8 °C 1006.4 hPa West 6.4 km/h 9.7 km/h 94% 0.2 mm 0 W/m2
01:22 7.7 °C 6.8 °C 1006.4 hPa West 11.1 km/h 11.3 km/h 94% 0.2 mm 0 W/m2
01:27 7.6 °C 6.7 °C 1006.4 hPa West 4.7 km/h 8 km/h 94% 0.0 mm 0 W/m2
01:32 7.6 °C 6.7 °C 1006.8 hPa West 6.4 km/h 14.5 km/h 94% 0.0 mm 0 W/m2
01:37 7.6 °C 6.7 °C 1006.8 hPa West 6.4 km/h 14.5 km/h 94% 0.0 mm 0 W/m2
01:42 7.6 °C 6.7 °C 1006.8 hPa West 11.1 km/h 11.3 km/h 94% 0.0 mm 0 W/m2
01:47 7.6 °C 6.7 °C 1006.8 hPa West 3.2 km/h 12.9 km/h 94% 0.0 mm 0 W/m2
01:52 7.6 °C 6.7 °C 1006.8 hPa WNW 6.4 km/h 14.5 km/h 94% 0.0 mm 0 W/m2
01:57 7.5 °C 6.6 °C 1006.8 hPa West 4.7 km/h 14.5 km/h 94% 0.0 mm 0 W/m2
02:02 7.5 °C 6.6 °C 1006.8 hPa West 4.7 km/h 16.1 km/h 94% 0.0 mm 0 W/m2
02:07 7.5 °C 6.6 °C 1007.1 hPa West 4.7 km/h 9.7 km/h 94% 0.0 mm 0 W/m2
02:12 7.4 °C 6.5 °C 1007.1 hPa NW 6.4 km/h 16.1 km/h 94% 0.0 mm 0 W/m2
02:17 7.5 °C 6.6 °C 1007.1 hPa WSW 4.7 km/h 14.5 km/h 94% 0.0 mm 0 W/m2
02:22 7.5 °C 6.6 °C 1007.1 hPa WNW 6.4 km/h 16.1 km/h 94% 0.0 mm 0 W/m2
02:27 7.5 °C 6.6 °C 1007.5 hPa West 9.7 km/h 9.7 km/h 94% 0.0 mm 0 W/m2
02:32 7.4 °C 6.5 °C 1007.5 hPa West 3.2 km/h 9.7 km/h 94% 0.0 mm 0 W/m2
02:37 7.4 °C 6.5 °C 1007.5 hPa West 9.7 km/h 11.3 km/h 94% 0.0 mm 0 W/m2
02:42 7.4 °C 6.5 °C 1007.5 hPa West 6.4 km/h 11.3 km/h 94% 0.0 mm 0 W/m2
02:47 7.4 °C 6.5 °C 1007.5 hPa WNW 13 km/h 16.1 km/h 94% 0.0 mm 0 W/m2
02:52 7.4 °C 6.5 °C 1007.8 hPa NW 7.9 km/h 11.3 km/h 94% 0.0 mm 0 W/m2
02:57 7.4 °C 6.5 °C 1007.8 hPa WSW 6.4 km/h 16.1 km/h 94% 0.0 mm 0 W/m2
03:02 7.4 °C 6.3 °C 1007.8 hPa NW 3.2 km/h 8 km/h 93% 0.0 mm 0 W/m2
03:07 7.4 °C 6.3 °C 1007.8 hPa West 3.2 km/h 16.1 km/h 93% 0.0 mm 0 W/m2
03:12 7.3 °C 6.2 °C 1007.8 hPa SW 3.2 km/h 6.4 km/h 93% 0.0 mm 0 W/m2
03:17 7.3 °C 6.4 °C 1008.1 hPa West 4.7 km/h 6.4 km/h 94% 0.0 mm 0 W/m2
03:22 7.3 °C 6.4 °C 1008.1 hPa WNW 4.7 km/h 11.3 km/h 94% 0.0 mm 0 W/m2
03:27 7.3 °C 6.4 °C 1008.1 hPa WNW 9.7 km/h 16.1 km/h 94% 0.0 mm 0 W/m2
03:32 7.3 °C 6.4 °C 1008.1 hPa West 4.7 km/h 8 km/h 94% 0.0 mm 0 W/m2
03:37 7.3 °C 6.2 °C 1008.1 hPa WNW 9.7 km/h 17.7 km/h 93% 0.0 mm 0 W/m2
03:42 7.3 °C 6.2 °C 1008.1 hPa WNW 4.7 km/h 9.7 km/h 93% 0.0 mm 0 W/m2
03:47 7.3 °C 6.2 °C 1008.1 hPa West 6.4 km/h 11.3 km/h 93% 0.0 mm 0 W/m2
03:52 7.3 °C 6.2 °C 1008.5 hPa West 1.4 km/h 9.7 km/h 93% 0.0 mm 0 W/m2
03:57 7.3 °C 6.2 °C 1008.5 hPa WNW 6.4 km/h 9.7 km/h 93% 0.0 mm 0 W/m2
04:02 7.2 °C 6.3 °C 1008.5 hPa West 4.7 km/h 6.4 km/h 94% 0.0 mm 0 W/m2
04:07 7.2 °C 6.3 °C 1008.5 hPa WSW 4.7 km/h 9.7 km/h 94% 0.0 mm 0 W/m2
04:12 7.2 °C 6.1 °C 1008.5 hPa West 1.4 km/h 6.4 km/h 93% 0.0 mm 0 W/m2
04:17 7.2 °C 6.1 °C 1008.5 hPa WNW 6.4 km/h 11.3 km/h 93% 0.0 mm 0 W/m2
04:22 7.2 °C 6.3 °C 1008.8 hPa WNW 4.7 km/h 11.3 km/h 94% 0.0 mm 0 W/m2
04:27 7.2 °C 6.3 °C 1008.8 hPa WSW 3.2 km/h 14.5 km/h 94% 0.0 mm 0 W/m2
04:32 7.2 °C 6.3 °C 1008.8 hPa West 3.2 km/h 6.4 km/h 94% 0.0 mm 0 W/m2
04:37 7.2 °C 6.3 °C 1008.8 hPa WNW 4.7 km/h 8 km/h 94% 0.0 mm 0 W/m2
04:42 7.2 °C 6.3 °C 1009.1 hPa NW 3.2 km/h 9.7 km/h 94% 0.0 mm 0 W/m2
04:47 7.2 °C 6.3 °C 1008.8 hPa WSW 1.4 km/h 6.4 km/h 94% 0.0 mm 0 W/m2
04:52 7.1 °C 6.2 °C 1009.1 hPa WSW 3.2 km/h 9.7 km/h 94% 0.0 mm 0 W/m2
04:57 7.1 °C 6.2 °C 1009.1 hPa WSW 1.4 km/h 6.4 km/h 94% 0.0 mm 0 W/m2
05:02 7.1 °C 6.2 °C 1009.1 hPa West 3.2 km/h 6.4 km/h 94% 0.0 mm 0 W/m2
05:07 7 °C 6.1 °C 1009.1 hPa West 4.7 km/h 11.3 km/h 94% 0.0 mm 0 W/m2
05:12 7 °C 6.1 °C 1009.1 hPa WSW 4.7 km/h 6.4 km/h 94% 0.0 mm 0 W/m2
05:17 7 °C 6.1 °C 1009.1 hPa West 3.2 km/h 11.3 km/h 94% 0.0 mm 0 W/m2
05:22 7 °C 6.1 °C 1009.1 hPa WNW 6.4 km/h 8 km/h 94% 0.0 mm 0 W/m2
05:27 6.9 °C 6 °C 1009.1 hPa West 4.7 km/h 11.3 km/h 94% 0.0 mm 0 W/m2
05:32 6.9 °C 6 °C 1009.1 hPa Calm   3.2 km/h 94% 0.0 mm 0 W/m2
05:37 6.9 °C 6 °C 1009.1 hPa West 3.2 km/h 6.4 km/h 94% 0.0 mm 0 W/m2
05:42 6.9 °C 6 °C 1009.1 hPa WNW 4.7 km/h 4.8 km/h 94% 0.0 mm 0 W/m2
05:47 6.9 °C 6 °C 1009.5 hPa WSW 1.4 km/h 6.4 km/h 94% 0.0 mm 0 W/m2
05:52 6.9 °C 6 °C 1009.1 hPa WNW 3.2 km/h 6.4 km/h 94% 0.0 mm 0 W/m2
05:57 6.8 °C 5.9 °C 1009.5 hPa Calm   4.8 km/h 94% 0.0 mm 0 W/m2
06:02 6.8 °C 5.9 °C 1009.5 hPa Calm   3.2 km/h 94% 0.0 mm 0 W/m2
06:07 6.8 °C 5.9 °C 1009.5 hPa WNW 3.2 km/h 4.8 km/h 94% 0.0 mm 0 W/m2
06:12 6.8 °C 5.9 °C 1009.5 hPa Calm   6.4 km/h 94% 0.0 mm 0 W/m2
06:17 6.8 °C 5.9 °C 1009.8 hPa SW 4.7 km/h 8 km/h 94% 0.0 mm 0 W/m2
06:22 6.8 °C 5.9 °C 1009.8 hPa West 3.2 km/h 3.2 km/h 94% 0.0 mm 0 W/m2
06:28 6.7 °C 5.8 °C 1009.8 hPa West 3.2 km/h 8 km/h 94% 0.0 mm 0 W/m2
06:33 6.7 °C 5.8 °C 1009.8 hPa West 4.7 km/h 4.8 km/h 94% 0.0 mm 0 W/m2
06:38 6.7 °C 5.8 °C 1009.8 hPa West 4.7 km/h 4.8 km/h 94% 0.0 mm 0 W/m2
06:43 6.7 °C 5.8 °C 1010.2 hPa WNW 3.2 km/h 6.4 km/h 94% 0.0 mm 0 W/m2
06:48 6.7 °C 5.8 °C 1010.2 hPa SSW 1.4 km/h 6.4 km/h 94% 0.0 mm 0 W/m2
06:53 6.7 °C 5.8 °C 1010.2 hPa West 3.2 km/h 4.8 km/h 94% 0.0 mm 0 W/m2
06:58 6.7 °C 5.8 °C 1010.2 hPa Calm   4.8 km/h 94% 0.0 mm 0 W/m2
07:03 6.6 °C 5.7 °C 1010.2 hPa Calm   1.6 km/h 94% 0.0 mm 0 W/m2
07:08 6.6 °C 5.7 °C 1010.2 hPa West 4.7 km/h 4.8 km/h 94% 0.0 mm 0 W/m2
07:13 6.5 °C 5.6 °C 1010.2 hPa Calm     94% 0.0 mm 0 W/m2
07:18 6.4 °C 5.5 °C 1010.2 hPa SW 1.4 km/h 8 km/h 94% 0.0 mm 0 W/m2
07:23 6.4 °C 5.5 °C 1010.2 hPa WNW 3.2 km/h 6.4 km/h 94% 0.0 mm 0 W/m2
07:28 6.4 °C 5.5 °C 1010.5 hPa WSW 3.2 km/h 4.8 km/h 94% 0.0 mm 0 W/m2
07:33 6.4 °C 5.5 °C 1010.5 hPa Calm   6.4 km/h 94% 0.0 mm 0 W/m2
07:38 6.3 °C 5.4 °C 1010.5 hPa West 4.7 km/h 11.3 km/h 94% 0.0 mm 0 W/m2
07:43 6.3 °C 5.4 °C 1010.5 hPa Calm   3.2 km/h 94% 0.0 mm 0 W/m2
07:48 6.3 °C 5.4 °C 1010.8 hPa West 4.7 km/h 11.3 km/h 94% 0.0 mm 0 W/m2
07:53 6.3 °C 5.4 °C 1010.8 hPa Calm   1.6 km/h 94% 0.0 mm 0 W/m2
07:58 6.3 °C 5.3 °C 1010.8 hPa Calm   6.4 km/h 93% 0.0 mm 0 W/m2
08:03 6.3 °C 5.3 °C 1010.8 hPa West 1.4 km/h 3.2 km/h 93% 0.0 mm 0 W/m2
08:08 6.3 °C 5.3 °C 1010.8 hPa Calm   3.2 km/h 93% 0.0 mm 0 W/m2
08:13 6.3 °C 5.4 °C 1010.8 hPa Calm   3.2 km/h 94% 0.0 mm 0 W/m2
08:18 6.3 °C 5.3 °C 1010.8 hPa Calm     93% 0.0 mm 0 W/m2
08:23 6.2 °C 5.2 °C 1010.8 hPa SW 1.4 km/h 4.8 km/h 93% 0.0 mm 0 W/m2
08:28 6.2 °C 5.2 °C 1011.2 hPa SW 1.4 km/h 3.2 km/h 93% 0.0 mm 0 W/m2
08:33 6.2 °C 5.2 °C 1011.2 hPa Calm   4.8 km/h 93% 0.0 mm 0 W/m2
08:38 6.2 °C 5.2 °C 1011.2 hPa WNW 3.2 km/h 4.8 km/h 93% 0.0 mm 0 W/m2
08:43 6.2 °C 5.2 °C 1011.2 hPa WNW 1.4 km/h 3.2 km/h 93% 0.0 mm 5 W/m2
08:48 6.1 °C 5.1 °C 1011.2 hPa West 1.4 km/h 6.4 km/h 93% 0.0 mm 9 W/m2
08:53 6.1 °C 5.1 °C 1011.2 hPa Calm     93% 0.0 mm 9 W/m2
08:58 6.1 °C 5.1 °C 1011.2 hPa Calm   6.4 km/h 93% 0.0 mm 9 W/m2
09:03 6 °C 5 °C 1011.5 hPa West 1.4 km/h 3.2 km/h 93% 0.0 mm 12 W/m2
09:08 5.9 °C 4.9 °C 1011.5 hPa ESE 1.4 km/h 4.8 km/h 93% 0.0 mm 14 W/m2
09:13 5.9 °C 4.9 °C 1011.5 hPa NW 1.4 km/h 6.4 km/h 93% 0.0 mm 14 W/m2
09:18 5.9 °C 5 °C 1011.5 hPa NW 4.7 km/h 4.8 km/h 94% 0.0 mm 25 W/m2
09:23 5.9 °C 4.9 °C 1011.9 hPa Calm   6.4 km/h 93% 0.0 mm 37 W/m2
09:28 5.9 °C 4.9 °C 1011.9 hPa WSW 1.4 km/h 3.2 km/h 93% 0.0 mm 40 W/m2
09:33 6 °C 5 °C 1011.9 hPa Calm   3.2 km/h 93% 0.0 mm 42 W/m2
09:38 6 °C 5 °C 1011.9 hPa WNW 3.2 km/h 4.8 km/h 93% 0.0 mm 40 W/m2
09:43 5.9 °C 4.7 °C 1011.9 hPa SW 1.4 km/h 4.8 km/h 92% 0.0 mm 33 W/m2
09:48 5.9 °C 4.7 °C 1011.9 hPa SE 3.2 km/h 6.4 km/h 92% 0.0 mm 33 W/m2
09:53 5.8 °C 4.6 °C 1011.9 hPa Calm   3.2 km/h 92% 0.0 mm 32 W/m2
09:58 5.8 °C 4.6 °C 1011.9 hPa NNW 4.7 km/h 4.8 km/h 92% 0.0 mm 30 W/m2
10:03 5.8 °C 4.6 °C 1012.2 hPa Calm   3.2 km/h 92% 0.0 mm 32 W/m2
10:08 5.8 °C 4.4 °C 1012.2 hPa West 3.2 km/h 11.3 km/h 91% 0.0 mm 35 W/m2
10:13 5.8 °C 4.4 °C 1012.2 hPa Calm   3.2 km/h 91% 0.0 mm 51 W/m2
10:18 5.7 °C 4.3 °C 1012.2 hPa NNW 1.4 km/h 11.3 km/h 91% 0.0 mm 58 W/m2
10:23 5.7 °C 4.3 °C 1012.5 hPa WNW 4.7 km/h 9.7 km/h 91% 0.0 mm 65 W/m2
10:28 5.7 °C 4.3 °C 1012.5 hPa Calm   3.2 km/h 91% 0.0 mm 76 W/m2
10:33 5.6 °C 4.2 °C 1012.5 hPa ESE 1.4 km/h 9.7 km/h 91% 0.0 mm 69 W/m2
10:38 5.6 °C 4.2 °C 1012.5 hPa Calm   9.7 km/h 91% 0.0 mm 81 W/m2
10:43 5.6 °C 4.2 °C 1012.5 hPa East 3.2 km/h 4.8 km/h 91% 0.0 mm 90 W/m2
10:48 5.6 °C 4.4 °C 1012.5 hPa West 3.2 km/h 11.3 km/h 92% 0.0 mm 83 W/m2
10:53 5.5 °C 4.3 °C 1012.9 hPa Calm   4.8 km/h 92% 0.0 mm 79 W/m2
10:58 5.5 °C 4.3 °C 1012.9 hPa WNW 4.7 km/h 6.4 km/h 92% 0.0 mm 84 W/m2
11:03 5.5 °C 4.3 °C 1012.5 hPa WSW 1.4 km/h 4.8 km/h 92% 0.0 mm 86 W/m2
11:08 5.5 °C 4.3 °C 1012.9 hPa WNW 6.4 km/h 6.4 km/h 92% 0.0 mm 91 W/m2
11:13 5.3 °C 4 °C 1012.9 hPa West 6.4 km/h 12.9 km/h 91% 0.0 mm 95 W/m2
11:18 5.2 °C 3.9 °C 1012.9 hPa WNW 1.4 km/h 6.4 km/h 91% 0.0 mm 90 W/m2
11:23 5.3 °C 4.1 °C 1012.9 hPa WNW 4.7 km/h 4.8 km/h 92% 0.0 mm 76 W/m2
11:28 5.3 °C 4.1 °C 1012.9 hPa NNW 4.7 km/h 4.8 km/h 92% 0.0 mm 62 W/m2
11:33 5.3 °C 4.1 °C 1012.9 hPa NW 3.2 km/h 3.2 km/h 92% 0.0 mm 65 W/m2
11:38 5.3 °C 4.1 °C 1012.9 hPa Calm   9.7 km/h 92% 0.0 mm 69 W/m2
11:43 5.3 °C 4.1 °C 1012.9 hPa South 1.4 km/h 4.8 km/h 92% 0.0 mm 69 W/m2
11:48 5.3 °C 4.1 °C 1012.9 hPa WSW 1.4 km/h 3.2 km/h 92% 0.0 mm 81 W/m2
11:53 5.4 °C 4.2 °C 1012.5 hPa Calm     92% 0.0 mm 83 W/m2
11:58 5.4 °C 4.2 °C 1012.5 hPa NNW 1.4 km/h 6.4 km/h 92% 0.0 mm 69 W/m2
12:03 5.4 °C 4.2 °C 1012.5 hPa NNW 1.4 km/h 4.8 km/h 92% 0.0 mm 69 W/m2
12:08 5.4 °C 4 °C 1012.5 hPa NE 3.2 km/h 8 km/h 91% 0.0 mm 72 W/m2
12:13 5.4 °C 4 °C 1012.5 hPa Calm   3.2 km/h 91% 0.0 mm 70 W/m2
12:18 5.4 °C 4 °C 1012.5 hPa NW 4.7 km/h 6.4 km/h 91% 0.0 mm 84 W/m2
12:23 5.4 °C 4.2 °C 1012.5 hPa NE 3.2 km/h 3.2 km/h 92% 0.0 mm 81 W/m2
12:28 5.4 °C 4 °C 1012.5 hPa Calm   6.4 km/h 91% 0.0 mm 88 W/m2
12:33 5.4 °C 4 °C 1012.5 hPa NNW 3.2 km/h 6.4 km/h 91% 0.0 mm 91 W/m2
12:38 5.4 °C 4 °C 1012.5 hPa NW 1.4 km/h 3.2 km/h 91% 0.0 mm 93 W/m2
12:43 5.5 °C 4.1 °C 1012.5 hPa West 3.2 km/h 4.8 km/h 91% 0.0 mm 77 W/m2
12:48 5.5 °C 4.1 °C 1012.2 hPa NNW 3.2 km/h 4.8 km/h 91% 0.0 mm 74 W/m2
12:53 5.5 °C 4.1 °C 1012.2 hPa NE 3.2 km/h 4.8 km/h 91% 0.0 mm 74 W/m2
12:58 5.5 °C 4.1 °C 1012.2 hPa SSE 1.4 km/h 4.8 km/h 91% 0.0 mm 81 W/m2
13:03 5.5 °C 4.1 °C 1012.2 hPa Calm   3.2 km/h 91% 0.0 mm 69 W/m2
13:08 5.6 °C 4.2 °C 1012.2 hPa NW 6.4 km/h 6.4 km/h 91% 0.0 mm 79 W/m2
13:13 5.6 °C 4.2 °C 1012.2 hPa WSW 6.4 km/h 6.4 km/h 91% 0.0 mm 65 W/m2
13:18 5.6 °C 4.1 °C 1012.2 hPa SE 4.7 km/h 4.8 km/h 90% 0.0 mm 67 W/m2
13:23 5.7 °C 4.3 °C 1012.2 hPa Calm   1.6 km/h 91% 0.0 mm 69 W/m2
13:28 5.7 °C 4.2 °C 1012.2 hPa NNW 1.4 km/h 6.4 km/h 90% 0.0 mm 67 W/m2
13:33 5.7 °C 4.3 °C 1012.2 hPa East 1.4 km/h 6.4 km/h 91% 0.0 mm 70 W/m2
13:38 5.7 °C 4.3 °C 1011.9 hPa NE 1.4 km/h 3.2 km/h 91% 0.0 mm 56 W/m2
13:43 5.8 °C 4.4 °C 1012.2 hPa NE 3.2 km/h 3.2 km/h 91% 0.0 mm 58 W/m2
13:48 5.8 °C 4.3 °C 1012.2 hPa Calm   3.2 km/h 90% 0.0 mm 60 W/m2
13:53 5.8 °C 4.3 °C 1012.2 hPa WNW 3.2 km/h 9.7 km/h 90% 0.0 mm 72 W/m2
13:59 5.8 °C 4.3 °C 1011.9 hPa West 4.7 km/h 6.4 km/h 90% 0.0 mm 91 W/m2
14:04 5.8 °C 4.3 °C 1011.9 hPa NW 1.4 km/h 4.8 km/h 90% 0.0 mm 113 W/m2
14:09 5.9 °C 4.4 °C 1011.9 hPa NW 1.4 km/h 6.4 km/h 90% 0.0 mm 146 W/m2
14:14 6.1 °C 4.6 °C 1011.9 hPa Calm   4.8 km/h 90% 0.0 mm 163 W/m2
14:19 6.1 °C 4.4 °C 1011.9 hPa Calm   1.6 km/h 89% 0.0 mm 120 W/m2
14:24 6.2 °C 4.5 °C 1011.9 hPa Calm   4.8 km/h 89% 0.0 mm 105 W/m2
14:29 6.3 °C 4.6 °C 1011.9 hPa Calm   3.2 km/h 89% 0.0 mm 46 W/m2
14:34 6.3 °C 4.6 °C 1011.9 hPa Calm   1.6 km/h 89% 0.0 mm 53 W/m2
14:39 6.3 °C 4.5 °C 1011.9 hPa Calm     88% 0.0 mm 54 W/m2
14:44 6.3 °C 4.5 °C 1011.9 hPa Calm   1.6 km/h 88% 0.0 mm 32 W/m2
14:49 6.3 °C 4.5 °C 1011.9 hPa Calm     88% 0.0 mm 32 W/m2
14:54 6.3 °C 4.6 °C 1011.9 hPa Calm     89% 0.0 mm 33 W/m2
14:59 6.3 °C 4.6 °C 1011.9 hPa East 1.4 km/h 3.2 km/h 89% 0.0 mm 32 W/m2
15:04 6.3 °C 4.6 °C 1012.2 hPa Calm   1.6 km/h 89% 0.0 mm 23 W/m2
15:09 6.3 °C 4.6 °C 1012.2 hPa East 1.4 km/h 3.2 km/h 89% 0.0 mm 12 W/m2
15:14 6.3 °C 4.6 °C 1012.2 hPa Calm   3.2 km/h 89% 0.0 mm 12 W/m2
15:19 6.2 °C 4.5 °C 1012.2 hPa Calm   3.2 km/h 89% 0.0 mm 12 W/m2
15:24 6.2 °C 4.5 °C 1012.2 hPa Calm   1.6 km/h 89% 0.0 mm 16 W/m2
15:29 6.2 °C 4.5 °C 1012.2 hPa Calm   3.2 km/h 89% 0.0 mm 18 W/m2
15:34 6.2 °C 4.5 °C 1012.2 hPa Calm   1.6 km/h 89% 0.0 mm 26 W/m2
15:39 6.2 °C 4.5 °C 1012.2 hPa Calm     89% 0.0 mm 21 W/m2
15:44 6.2 °C 4.7 °C 1012.2 hPa Calm     90% 0.0 mm 18 W/m2
15:49 6.2 °C 4.5 °C 1012.2 hPa Calm     89% 0.0 mm 19 W/m2
15:54 6.2 °C 4.5 °C 1012.2 hPa Calm   3.2 km/h 89% 0.0 mm 16 W/m2
15:59 6.2 °C 4.5 °C 1012.2 hPa NW 3.2 km/h 4.8 km/h 89% 0.0 mm 12 W/m2
16:04 6.1 °C 4.4 °C 1012.2 hPa NE 1.4 km/h 3.2 km/h 89% 0.0 mm 12 W/m2
16:09 6.1 °C 4.3 °C 1012.2 hPa North 3.2 km/h 4.8 km/h 88% 0.0 mm 12 W/m2
16:14 6 °C 4.2 °C 1012.2 hPa ENE 3.2 km/h 3.2 km/h 88% 0.0 mm 11 W/m2
16:19 5.9 °C 4.1 °C 1012.2 hPa ESE 4.7 km/h 6.4 km/h 88% 0.0 mm 7 W/m2
16:24 5.9 °C 4.1 °C 1012.2 hPa ENE 1.4 km/h 4.8 km/h 88% 0.0 mm 5 W/m2
16:29 5.9 °C 4.1 °C 1011.9 hPa Calm   6.4 km/h 88% 0.0 mm 5 W/m2
16:34 5.8 °C 4.1 °C 1011.9 hPa Calm     89% 0.0 mm 0 W/m2
16:39 5.8 °C 4.1 °C 1011.9 hPa East 3.2 km/h 4.8 km/h 89% 0.0 mm 0 W/m2
16:44 5.7 °C 4 °C 1011.9 hPa Calm   1.6 km/h 89% 0.0 mm 0 W/m2
16:49 5.7 °C 4.2 °C 1011.9 hPa NE 1.4 km/h 6.4 km/h 90% 0.0 mm 0 W/m2
16:54 5.6 °C 4.1 °C 1011.9 hPa East 3.2 km/h 6.4 km/h 90% 0.0 mm 0 W/m2
16:59 5.6 °C 4.1 °C 1011.9 hPa ENE 4.7 km/h 8 km/h 90% 0.0 mm 0 W/m2
17:04 5.6 °C 4.1 °C 1011.9 hPa ENE 3.2 km/h 6.4 km/h 90% 0.0 mm 0 W/m2
17:09 5.6 °C 4.1 °C 1011.9 hPa NE 1.4 km/h 6.4 km/h 90% 0.0 mm 0 W/m2
17:14 5.6 °C 4.1 °C 1011.9 hPa NE 1.4 km/h 6.4 km/h 90% 0.0 mm 0 W/m2
17:19 5.6 °C 4.1 °C 1011.9 hPa ESE 1.4 km/h 4.8 km/h 90% 0.0 mm 0 W/m2
17:24 5.5 °C 4 °C 1012.2 hPa Calm   1.6 km/h 90% 0.0 mm 0 W/m2
17:29 5.5 °C 4.1 °C 1011.9 hPa Calm     91% 0.0 mm 0 W/m2
17:34 5.4 °C 4 °C 1011.9 hPa East 6.4 km/h 6.4 km/h 91% 0.0 mm 0 W/m2
17:39 5.4 °C 4 °C 1011.9 hPa NE 4.7 km/h 9.7 km/h 91% 0.0 mm 0 W/m2
17:44 5.4 °C 4 °C 1011.5 hPa East 3.2 km/h 6.4 km/h 91% 0.0 mm 0 W/m2
17:49 5.4 °C 4 °C 1011.9 hPa North 3.2 km/h 9.7 km/h 91% 0.0 mm 0 W/m2
17:54 5.4 °C 4 °C 1011.9 hPa ENE 4.7 km/h 4.8 km/h 91% 0.0 mm 0 W/m2
17:59 5.4 °C 4 °C 1011.9 hPa Calm     91% 0.0 mm 0 W/m2
18:04 5.3 °C 4 °C 1011.9 hPa Calm   6.4 km/h 91% 0.0 mm 0 W/m2
18:09 5.3 °C 4 °C 1011.9 hPa Calm   3.2 km/h 91% 0.0 mm 0 W/m2
18:14 5.2 °C 3.9 °C 1011.9 hPa ENE 1.4 km/h 4.8 km/h 91% 0.0 mm 0 W/m2
18:19 5.2 °C 4 °C 1011.9 hPa Calm     92% 0.0 mm 0 W/m2
18:24 5.2 °C 4 °C 1011.9 hPa East 3.2 km/h 4.8 km/h 92% 0.0 mm 0 W/m2
18:29 5.2 °C 4 °C 1011.9 hPa East 1.4 km/h 3.2 km/h 92% 0.0 mm 0 W/m2
18:34 5.1 °C 3.9 °C 1011.5 hPa East 1.4 km/h 4.8 km/h 92% 0.0 mm 0 W/m2
18:39 5.2 °C 4 °C 1011.5 hPa Calm   3.2 km/h 92% 0.0 mm 0 W/m2
18:44 5.1 °C 3.9 °C 1011.5 hPa ENE 9.7 km/h 11.3 km/h 92% 0.0 mm 0 W/m2
18:49 5.2 °C 4 °C 1011.5 hPa East 1.4 km/h 6.4 km/h 92% 0.0 mm 0 W/m2
18:54 5.2 °C 4 °C 1011.5 hPa Calm   3.2 km/h 92% 0.0 mm 0 W/m2
18:59 5.1 °C 3.9 °C 1011.5 hPa Calm   1.6 km/h 92% 0.0 mm 0 W/m2
19:05 5 °C 3.8 °C 1011.5 hPa Calm     92% 0.0 mm 0 W/m2
19:10 4.8 °C 3.6 °C 1011.2 hPa Calm   1.6 km/h 92% 0.0 mm 0 W/m2
19:15 4.8 °C 3.8 °C 1011.5 hPa East 1.4 km/h 1.6 km/h 93% 0.0 mm 0 W/m2
19:20 4.8 °C 3.8 °C 1011.5 hPa Calm   1.6 km/h 93% 0.0 mm 0 W/m2
19:25 4.8 °C 3.8 °C 1011.2 hPa Calm     93% 0.0 mm 0 W/m2
19:30 4.7 °C 3.7 °C 1011.5 hPa Calm     93% 0.0 mm 0 W/m2
19:35 4.7 °C 3.7 °C 1011.5 hPa Calm   3.2 km/h 93% 0.0 mm 0 W/m2
19:40 4.7 °C 3.8 °C 1011.5 hPa Calm     94% 0.0 mm 0 W/m2
19:45 4.7 °C 3.8 °C 1011.5 hPa Calm   4.8 km/h 94% 0.0 mm 0 W/m2
19:50 4.7 °C 3.8 °C 1011.5 hPa NNE 1.4 km/h 3.2 km/h 94% 0.0 mm 0 W/m2
19:55 4.7 °C 3.8 °C 1011.5 hPa NNE 1.4 km/h 4.8 km/h 94% 0.0 mm 0 W/m2
20:00 4.7 °C 3.8 °C 1011.5 hPa ENE 3.2 km/h 3.2 km/h 94% 0.0 mm 0 W/m2
20:05 4.7 °C 3.8 °C 1011.5 hPa Calm   3.2 km/h 94% 0.0 mm 0 W/m2
20:10 4.7 °C 3.8 °C 1011.5 hPa Calm     94% 0.0 mm 0 W/m2
20:15 4.7 °C 3.8 °C 1011.2 hPa Calm     94% 0.0 mm 0 W/m2
20:20 4.6 °C 3.7 °C 1011.2 hPa Calm   3.2 km/h 94% 0.0 mm 0 W/m2
20:25 4.6 °C 3.7 °C 1011.2 hPa Calm   1.6 km/h 94% 0.0 mm 0 W/m2
20:30 4.5 °C 3.6 °C 1011.2 hPa North 1.4 km/h 1.6 km/h 94% 0.0 mm 0 W/m2
20:35 4.4 °C 3.5 °C 1011.2 hPa North 1.4 km/h 1.6 km/h 94% 0.0 mm 0 W/m2
20:40 4.3 °C 3.4 °C 1011.2 hPa Calm   1.6 km/h 94% 0.0 mm 0 W/m2
20:45 4.1 °C 3.1 °C 1011.2 hPa Calm     93% 0.0 mm 0 W/m2
20:50 4 °C 3 °C 1010.8 hPa Calm     93% 0.0 mm 0 W/m2
20:55 3.8 °C 2.9 °C 1010.8 hPa Calm     94% 0.0 mm 0 W/m2
21:00 3.7 °C 2.8 °C 1010.8 hPa North 1.4 km/h 3.2 km/h 94% 0.0 mm 0 W/m2
21:05 3.6 °C 2.7 °C 1010.8 hPa Calm     94% 0.0 mm 0 W/m2
21:10 3.4 °C 2.5 °C 1010.8 hPa Calm   3.2 km/h 94% 0.0 mm 0 W/m2
21:15 3.3 °C 2.4 °C 1010.8 hPa Calm     94% 0.0 mm 0 W/m2
21:20 3.3 °C 2.4 °C 1010.8 hPa Calm     94% 0.0 mm 0 W/m2
21:25 3.2 °C 2.3 °C 1011.2 hPa Calm     94% 0.0 mm 0 W/m2
21:30 3.1 °C 2.2 °C 1010.8 hPa Calm   1.6 km/h 94% 0.0 mm 0 W/m2
21:35 3.2 °C 2.5 °C 1010.8 hPa ENE 1.4 km/h 3.2 km/h 95% 0.0 mm 0 W/m2
21:40 3.2 °C 2.5 °C 1011.2 hPa Calm   1.6 km/h 95% 0.0 mm 0 W/m2
21:45 3.1 °C 2.4 °C 1011.2 hPa Calm     95% 0.0 mm 0 W/m2
21:50 3.1 °C 2.4 °C 1011.2 hPa Calm     95% 0.0 mm 0 W/m2
21:56 2.9 °C 2.2 °C 1011.2 hPa Calm     95% 0.0 mm 0 W/m2
22:01 2.9 °C 2.2 °C 1011.2 hPa Calm   1.6 km/h 95% 0.0 mm 0 W/m2
22:06 2.9 °C 2.2 °C 1010.8 hPa Calm     95% 0.0 mm 0 W/m2
22:11 3 °C 2.3 °C 1010.8 hPa Calm   3.2 km/h 95% 0.0 mm 0 W/m2
22:16 3.1 °C 2.4 °C 1010.8 hPa Calm   1.6 km/h 95% 0.0 mm 0 W/m2
22:21 3.1 °C 2.5 °C 1010.8 hPa Calm     96% 0.0 mm 0 W/m2
22:26 3.2 °C 2.6 °C 1011.2 hPa Calm   1.6 km/h 96% 0.0 mm 0 W/m2
22:31 3.3 °C 2.7 °C 1011.2 hPa ENE 1.4 km/h 3.2 km/h 96% 0.0 mm 0 W/m2
22:36 3.4 °C 2.8 °C 1010.8 hPa Calm   1.6 km/h 96% 0.0 mm 0 W/m2
22:41 3.5 °C 2.9 °C 1011.2 hPa Calm     96% 0.0 mm 0 W/m2
22:46 3.6 °C 3 °C 1011.2 hPa Calm     96% 0.0 mm 0 W/m2
22:51 3.6 °C 3 °C 1011.2 hPa Calm     96% 0.0 mm 0 W/m2
22:56 3.7 °C 3.1 °C 1010.8 hPa Calm     96% 0.0 mm 0 W/m2
23:01 3.8 °C 3.2 °C 1010.8 hPa Calm     96% 0.0 mm 0 W/m2
23:06 3.8 °C 3.2 °C 1010.8 hPa Calm     96% 0.0 mm 0 W/m2
23:11 3.8 °C 3.2 °C 1010.8 hPa Calm     96% 0.0 mm 0 W/m2
23:16 3.9 °C 3.3 °C 1010.8 hPa Calm     96% 0.0 mm 0 W/m2
23:21 3.9 °C 3.3 °C 1010.8 hPa Calm     96% 0.0 mm 0 W/m2
23:26 3.9 °C 3.3 °C 1010.8 hPa Calm     96% 0.0 mm 0 W/m2
23:31 3.9 °C 3.3 °C 1010.8 hPa Calm     96% 0.0 mm 0 W/m2
23:36 3.9 °C 3.3 °C 1010.8 hPa Calm     96% 0.0 mm 0 W/m2
23:41 3.9 °C 3.3 °C 1010.8 hPa Calm     96% 0.0 mm 0 W/m2
23:46 3.9 °C 3.3 °C 1010.8 hPa Calm   1.6 km/h 96% 0.0 mm 0 W/m2
23:51 4.1 °C 3.7 °C 1010.8 hPa NE 4.7 km/h 6.4 km/h 97% 0.0 mm 0 W/m2
23:56 4.2 °C 3.8 °C 1010.8 hPa ENE 4.7 km/h 6.4 km/h 97% 0.0 mm 0 W/m2
Juneau County Weather
Compliments of Weather Underground - 4 mb